{"data":{"norad_id":66558,"intl_designator":"2025-268B","name":"STARLINK-35695","alt_names":[],"object_type":"PAYLOAD","status":"ACTIVE","operator":null,"country":"US","launch_date":"2025-11-21","launch_site_code":"AFETR","launch_vehicle":null,"mission":null,"orbit_class":"UNKNOWN","rcs_meters":null,"size_class":null,"mass_kg":null,"dimensions":null,"purposes":["comms"],"wikipedia_slug":null,"has_3d_model":false,"image_url":null,"decayed_at":null,"tle_current":{"epoch":"2026-09-20T11:08:21.610464Z","epoch_age_seconds":92433,"freshness":"FRESH","line1":"1 66558U 25268B   26263.46413901  .00008642  00000+0  32314-3 0  9995","line2":"2 66558  42.9992 327.4595 0000572 262.1896  97.8890 15.27584462 47747","mean_motion":15.27584462,"eccentricity":5.72e-5,"inclination_deg":42.9992,"raan_deg":327.4595,"arg_perigee_deg":262.1896,"mean_anomaly_deg":97.889,"bstar":0.00032314,"rev_number":4774,"period_min":94.266473365058,"perigee_km":482.64327615852,"apogee_km":483.42819431943,"semimajor_km":6861.172735239,"source":"CELESTRAK","updated_at":"2026-09-21T09:00:35.969594Z"}}}